[[{"header":{"parameterUnit":"m.s-1","parameterCategory":1,"la1":30.2991,"la2":30.254,"lo1":-89.0895,"lo2":-89.0444,"dy":0.0017,"dx":0.0017,"nx":28,"ny":28,"refTime":"2024-05-23T03:00:00:Z","depth":0,"parameterNumber":2,"parameterNumberName":"U-component_of_WINDS"},"data":[0,0,0,0,0,0,0,0,0,0,0,0,0,0,0,0,0,0,0,0,0,0,0,0,0,0,0,0,0,0,0,0,0,0,0,0,0,0,0,0,0,0,0,0,0,0,0,0,0,0,0,0,0,0,0,0,0,0,-3.2617,-3.2618,0,-3.2644,-3.2644,-3.2644,-3.2625,-3.2624,-3.2623,-3.2623,-3.2649,-3.2651,-3.2652,0,0,0,0,0,0,0,0,0,0,0,0,0,-3.255,-3.2552,-3.2617,-3.2618,-3.2618,-3.2644,-3.2644,-3.2645,-3.2625,-3.2624,-3.2623,-3.2622,-3.2649,-3.265,-3.2652,0,0,0,0,0,0,0,0,0,0,0,0,0,-3.2578,-3.2552,-3.2617,-3.2611,-3.2611,-3.2644,-3.2644,-3.2645,-3.2625,-3.2624,-3.2623,-3.2622,-3.2648,-3.265,-3.2652,-3.2692,0,0,-3.2659,-3.266,0,0,0,0,0,0,0,0,-3.2577,-3.2581,-3.2612,-3.2612,-3.2612,-3.263,-3.263,-3.2661,-3.2626,-3.262,-3.2622,-3.2621,-3.2644,-3.2646,-3.2654,-3.2693,-3.2694,-3.266,-3.2661,-3.2662,-3.2663,0,0,0,0,0,0,0,-3.2575,-3.258,-3.2628,-3.2612,-3.2612,-3.2608,-3.261,-3.2636,-3.2639,-3.262,-3.2619,-3.2622,-3.2643,-3.2652,-3.2654,-3.2695,-3.2659,-3.2661,-3.2663,-3.2664,-3.2769,-3.277,0,0,0,0,0,0,-3.2573,-3.2578,-3.2627,-3.2629,-3.2591,-3.261,-3.2613,-3.2625,-3.2638,-3.2639,-3.2624,-3.2621,-3.2649,-3.2652,-3.2655,-3.2703,-3.2662,-3.2664,-3.2665,-3.2768,-3.2769,-3.2771,0,0,0,0,0,0,-3.2572,-3.2578,-3.2626,-3.2603,-3.2609,-3.2612,-3.2627,-3.2626,-3.2635,-3.2641,-3.2641,-3.2632,-3.2648,-3.2652,-3.2683,-3.2703,-3.2665,-3.2667,-3.2766,-3.2768,-3.277,-3.2797,0,0,0,0,0,0,-3.257,-3.2578,-3.2592,-3.2603,-3.261,-3.2653,-3.2628,-3.2628,-3.2639,-3.2636,-3.2648,-3.2649,-3.2647,-3.268,-3.2686,-3.2706,-3.2669,-3.2764,-3.2767,-3.2769,-3.2795,-3.28,-3.2805,0,0,0,0,0,-3.2568,-3.2599,-3.2593,-3.2599,-3.2628,-3.2654,-3.2658,-3.2655,-3.2641,-3.2656,-3.266,-3.2649,-3.2701,-3.2683,-3.2689,-3.271,-3.2763,-3.2766,-3.2769,-3.2792,-3.2799,-3.2805,0,0,0,0,0,0,-3.2589,-3.26,-3.2594,-3.2629,-3.2641,-3.2651,-3.2669,-3.2662,-3.2678,-3.2675,-3.2671,-3.2674,-3.2707,-3.2712,-3.2693,-3.275,-3.2729,-3.2734,-3.2745,-3.2751,-3.2756,-3.2754,-3.2671,0,0,0,0,0,-3.2598,-3.2618,-3.2626,-3.2657,-3.2663,-3.2666,-3.2677,-3.2674,-3.2686,-3.269,-3.2697,-3.2709,-3.2728,-3.274,-3.2758,-3.2796,-3.2799,-3.2814,-3.2819,-3.2823,-3.2827,-3.2848,-3.2854,-3.2782,-3.2782,-3.2781,0,0,-3.2616,-3.2624,-3.2637,-3.2661,-3.267,-3.2691,-3.267,-3.2692,-3.2708,-3.2694,-3.2723,-3.2729,-3.2742,-3.2777,-3.2793,-3.2782,-3.2848,-3.2827,-3.2831,-3.2832,-3.2852,-3.2859,-3.2865,-3.2784,-3.2783,-3.2783,0,0,-3.2659,-3.2668,-3.2694,-3.2704,-3.2718,-3.272,-3.2726,-3.2738,-3.2741,-3.2771,-3.2761,-3.278,-3.2813,-3.2823,-3.2832,-3.2882,-3.2873,-3.2888,-3.2914,-3.2935,-3.2941,-3.2946,-3.2963,-3.2969,-3.2892,-3.2892,-3.2892,0,-3.2679,-3.271,-3.2708,-3.2732,-3.2743,-3.2733,-3.2759,-3.2769,-3.2788,-3.2796,-3.2785,-3.2827,-3.2835,-3.2872,-3.2885,-3.2893,-3.29,-3.2886,-3.294,-3.2945,-3.295,-3.2966,-3.2973,-3.2894,-3.2894,-3.2894,-3.2893,0,-3.2735,-3.2757,-3.2776,-3.2796,-3.2809,-3.2834,-3.2836,-3.2851,-3.2847,-3.2851,-3.2882,-3.2892,-3.2912,-3.2921,-3.2918,-3.2958,-3.2952,-3.2941,-3.2919,-3.2958,-3.2974,-3.298,-3.2896,-3.2896,-3.2895,-3.2895,0,0,-3.2789,-3.2809,-3.2816,-3.2825,-3.2841,-3.2858,-3.2883,-3.2903,-3.2915,-3.293,-3.2951,-3.298,-3.297,-3.2981,-3.2979,-3.2998,-3.3036,-3.2984,-3.2985,-3.2993,-3.3082,-3.3089,-3.3096,-3.3031,-3.3033,-3.3034,-3.308,0,-3.2833,-3.2877,-3.2877,-3.2917,-3.2938,-3.2929,-3.2952,-3.2964,-3.2968,-3.2987,-3.2992,-3.3012,-3.2998,-3.3004,-3.3022,-3.3028,-3.3054,-3.3025,-3.305,-3.3051,-3.3045,-3.3104,-3.3112,-3.3155,-3.3086,-3.3087,-3.3088,0,-3.2889,-3.2906,-3.2948,-3.2962,-3.2971,-3.2991,-3.301,-3.3027,-3.3042,-3.3044,-3.3057,-3.3053,-3.3079,-3.3059,-3.3096,-3.3076,-3.3087,-3.3091,-3.3093,-3.3094,-3.3071,-3.3105,-3.3169,-3.3175,-3.3098,-3.3097,-3.3096,0,-3.2923,-3.2957,-3.2987,-3.2995,-3.3012,-3.3027,-3.3034,-3.3048,-3.306,-3.3077,-3.3085,-3.3105,-3.3116,-3.3132,-3.3133,-3.3119,-3.317,-3.315,-3.3172,-3.3172,-3.3181,-3.318,-3.3246,-3.3191,-3.3191,-3.3191,-3.3191,0,-3.2971,-3.2997,-3.3003,-3.3021,-3.3051,-3.3051,-3.308,-3.3087,-3.31,-3.3119,-3.3114,-3.3133,-3.3134,-3.3154,-3.3156,-3.3185,-3.3191,-3.3193,-3.3193,-3.3192,-3.3192,-3.3198,-3.3194,-3.3193,-3.3192,-3.3192,-3.3192,0,-3.3014,-3.3019,-3.3051,-3.3065,-3.3069,-3.309,-3.3103,-3.312,-3.3125,-3.3151,-3.3157,-3.3164,-3.3187,-3.3191,-3.3217,-3.3219,-3.3254,-3.3252,-3.3249,-3.3248,-3.327,-3.3267,-3.334,-3.335,-3.329,-3.329,-3.3291,0,-3.3043,-3.3063,-3.308,-3.3093,-3.3102,-3.3123,-3.3136,-3.3138,-3.3152,-3.3171,-3.3186,-3.3209,-3.3226,-3.3264,-3.3271,-3.3292,-3.3289,-3.3314,-3.3292,-3.3292,-3.3289,-3.3287,-3.3289,-3.3317,-3.3318,-3.3318,-3.3319,0,-3.3094,-3.3096,-3.3115,-3.3135,-3.3151,-3.3167,-3.3182,-3.3194,-3.3198,-3.3214,-3.3237,-3.3251,-3.3279,-3.3302,-3.3323,-3.3331,-3.3326,-3.3326,-3.3332,-3.3331,-3.3328,-3.3329,-3.3259,-3.3324,-3.3323,-3.3323,-3.3322,-3.3322,-3.313,-3.3148,-3.3163,-3.3185,-3.3197,-3.3211,-3.3229,-3.3237,-3.3256,-3.3279,-3.328,-3.3305,-3.3321,-3.3348,-3.3359,-3.3379,-3.3371,-3.338,-3.3382,-3.3384,-3.3386,-3.3327,-3.3383,-3.3383,-3.3383,-3.3383,-3.3383,0,-3.3181,-3.319,-3.321,-3.3232,-3.325,-3.3244,-3.3261,-3.3276,-3.3299,-3.3314,-3.3332,-3.3359,-3.3381,-3.3392,-3.3414,-3.3428,-3.3426,-3.3434,-3.3432,-3.3434,-3.3392,-3.3384,-3.3435,-3.3435,-3.3435,-3.3435,-3.3435,-3.3435,-3.3209,-3.3238,-3.3242,-3.3278,-3.3288,-3.3313,-3.3323,-3.3337,-3.3349,-3.338,-3.3398,-3.3406,-3.3419,-3.3442,-3.3463,-3.3465,-3.3473,-3.3481,-3.3483,-3.3442,-3.3437,-3.3432,-3.3424,-3.3483,-3.3484,-3.3524,-3.3524,-3.3524]},{"header":{"parameterUnit":"m.s-1","parameterCategory":1,"la1":30.2991,"la2":30.254,"lo1":-89.0895,"lo2":-89.0444,"dy":0.0017,"dx":0.0017,"nx":28,"ny":28,"refTime":"2024-05-23T03:00:00:Z","depth":0,"parameterNumber":3,"parameterNumberName":"V-component_of_WINDS"},"data":[0,0,0,0,0,0,0,0,0,0,0,0,0,0,0,0,0,0,0,0,0,0,0,0,0,0,0,0,0,0,0,0,0,0,0,0,0,0,0,0,0,0,0,0,0,0,0,0,0,0,0,0,0,0,0,0,0,0,4.7887,4.7888,0,4.7917,4.7918,4.7918,4.7932,4.7932,4.7932,4.7932,4.796,4.7961,4.7962,0,0,0,0,0,0,0,0,0,0,0,0,0,4.784,4.7841,4.7887,4.7888,4.7888,4.7917,4.7918,4.7918,4.7932,4.7932,4.7932,4.7932,4.796,4.7961,4.7962,0,0,0,0,0,0,0,0,0,0,0,0,0,4.7864,4.7841,4.7887,4.7898,4.79,4.7917,4.7918,4.7918,4.7932,4.7932,4.7932,4.7932,4.796,4.7961,4.7962,4.7969,0,0,4.7965,4.7966,0,0,0,0,0,0,0,0,4.7863,4.7866,4.7896,4.7898,4.7899,4.7921,4.7911,4.7935,4.7932,4.792,4.7932,4.7932,4.7947,4.7949,4.7955,4.7971,4.7972,4.7965,4.7966,4.7967,4.7967,0,0,0,0,0,0,0,4.7861,4.7865,4.7899,4.7897,4.7899,4.7902,4.7905,4.7916,4.7933,4.7921,4.7922,4.7925,4.7948,4.7954,4.7955,4.7972,4.7965,4.7966,4.7967,4.7968,4.7997,4.7997,0,0,0,0,0,0,4.7858,4.7863,4.7898,4.79,4.7881,4.7902,4.7906,4.7914,4.7933,4.7936,4.7925,4.7926,4.7952,4.7954,4.7957,4.7967,4.7967,4.7968,4.7968,4.7997,4.7997,4.7997,0,0,0,0,0,0,4.7857,4.7861,4.7897,4.7882,4.7887,4.7903,4.7912,4.7915,4.7921,4.7936,4.7939,4.7928,4.7952,4.7955,4.7967,4.7968,4.7968,4.7969,4.7997,4.7997,4.7997,4.7988,0,0,0,0,0,0,4.7855,4.786,4.7864,4.7882,4.7887,4.7907,4.7912,4.7915,4.7923,4.7924,4.794,4.7943,4.7952,4.7965,4.7968,4.797,4.797,4.7997,4.7997,4.7997,4.7988,4.7988,4.7988,0,0,0,0,0,4.7854,4.7859,4.7864,4.7868,4.7892,4.7907,4.791,4.7921,4.7923,4.7926,4.7937,4.7942,4.7968,4.7966,4.7969,4.7972,4.7996,4.7997,4.7997,4.7989,4.7988,4.7988,0,0,0,0,0,0,4.7839,4.7862,4.7867,4.7879,4.7891,4.7909,4.7914,4.792,4.7931,4.7932,4.7945,4.7948,4.7959,4.7966,4.7964,4.7981,4.7983,4.7984,4.7975,4.7975,4.7975,4.7972,4.7971,0,0,0,0,0,4.7838,4.7849,4.7867,4.7876,4.7882,4.7897,4.7903,4.7911,4.7924,4.7929,4.794,4.7952,4.7962,4.7969,4.798,4.799,4.7994,4.7993,4.7993,4.7993,4.7993,4.8,4.8,4.7998,4.7998,4.7998,0,0,4.7834,4.7848,4.7853,4.7873,4.7884,4.7894,4.7901,4.7911,4.7919,4.793,4.7942,4.7951,4.7965,4.7976,4.7981,4.7982,4.7995,4.7993,4.7993,4.7993,4.8,4.8,4.8,4.7998,4.7998,4.7998,0,0,4.7833,4.7844,4.7853,4.7864,4.788,4.789,4.7893,4.791,4.7917,4.7929,4.7938,4.7947,4.7965,4.7975,4.7982,4.7987,4.7992,4.799,4.7988,4.7994,4.7994,4.7994,4.7996,4.7997,4.799,4.799,4.799,0,4.7826,4.7843,4.7857,4.7867,4.7876,4.7888,4.7897,4.7906,4.7925,4.793,4.7932,4.7956,4.7965,4.7979,4.7981,4.7986,4.7989,4.7988,4.7993,4.7994,4.7994,4.7996,4.7996,4.799,4.799,4.799,4.799,0,4.7834,4.7846,4.7851,4.787,4.7879,4.7889,4.7904,4.7911,4.7919,4.7928,4.7941,4.7954,4.7968,4.7972,4.7978,4.7987,4.7987,4.7991,4.7993,4.7994,4.7996,4.7996,4.7989,4.7989,4.799,4.799,0,0,4.7824,4.7852,4.7853,4.7863,4.7882,4.7891,4.7901,4.7916,4.7923,4.7935,4.7944,4.796,4.7964,4.7972,4.798,4.7985,4.7989,4.7989,4.7989,4.7988,4.7999,4.7996,4.7997,4.7993,4.7993,4.7993,4.7998,0,4.7825,4.7846,4.7859,4.7874,4.7885,4.7897,4.7906,4.7919,4.7929,4.7939,4.7949,4.7961,4.7965,4.797,4.7976,4.7987,4.7991,4.7987,4.8001,4.8001,4.7997,4.7998,4.7995,4.7999,4.7999,4.7999,4.7999,0,4.783,4.7844,4.786,4.788,4.7885,4.7893,4.7908,4.7918,4.7933,4.794,4.795,4.7958,4.7969,4.7971,4.7987,4.7984,4.799,4.7996,4.7997,4.7998,4.8,4.7999,4.8,4.8001,4.8,4.8,4.8,0,4.7821,4.7844,4.7857,4.7864,4.7887,4.7893,4.7902,4.7917,4.7926,4.7939,4.7944,4.7958,4.7965,4.7976,4.7988,4.7988,4.8002,4.8005,4.8008,4.8007,4.801,4.8009,4.8011,4.8014,4.8014,4.8014,4.8014,0,4.7822,4.7831,4.7854,4.7861,4.7873,4.7888,4.7898,4.7908,4.7922,4.7932,4.7943,4.7951,4.7967,4.7977,4.7987,4.7999,4.8002,4.8007,4.8009,4.8006,4.8005,4.801,4.801,4.8014,4.8014,4.8014,4.8014,0,4.7813,4.7829,4.7844,4.7865,4.7871,4.7878,4.7896,4.7904,4.7915,4.7927,4.7931,4.7947,4.7961,4.7974,4.7991,4.7998,4.8009,4.8012,4.8004,4.8006,4.8008,4.8008,4.8013,4.8015,4.8016,4.8016,4.8016,0,4.7813,4.7821,4.7843,4.7851,4.7861,4.7874,4.7883,4.7898,4.7907,4.7925,4.7931,4.7946,4.7958,4.7978,4.7992,4.8005,4.8009,4.801,4.8011,4.8007,4.8009,4.8008,4.8009,4.8009,4.8009,4.8009,4.8009,0,4.781,4.7818,4.7831,4.7848,4.7859,4.7872,4.7886,4.7891,4.7909,4.7919,4.7933,4.7943,4.7961,4.7975,4.7991,4.8,4.8007,4.8009,4.801,4.8007,4.8002,4.8005,4.8003,4.8008,4.8008,4.8008,4.8009,4.8009,4.7806,4.7814,4.7831,4.7846,4.7859,4.7871,4.788,4.7893,4.7906,4.7923,4.7931,4.7946,4.7961,4.7982,4.7992,4.8003,4.8005,4.8007,4.8007,4.8007,4.8007,4.8001,4.8006,4.8006,4.8006,4.8006,4.8006,0,4.7804,4.7816,4.783,4.785,4.7861,4.7869,4.7884,4.7893,4.7907,4.7921,4.7933,4.795,4.7964,4.7979,4.7994,4.8,4.8004,4.8003,4.8003,4.8005,4.8004,4.8002,4.8,4.8,4.8,4.8,4.8,4.8,4.7804,4.7819,4.7828,4.7849,4.7861,4.7876,4.7885,4.7897,4.7908,4.7927,4.7939,4.7949,4.7964,4.798,4.7993,4.7997,4.8002,4.8001,4.8006,4.8004,4.8005,4.8005,4.8003,4.8002,4.8002,4.8006,4.8006,4.8006]}]]